This is the latest recevied weather packets stored in our database for station/object N5TDX. If no packets are shown the sender has not sent any weather packets the latest 10 day(s).
| Time | Temp. | Humidity | Pressure | Rain* | Wind** | Luminosity | Snow |
|---|---|---|---|---|---|---|---|
| 1778008074 | 31.11° C | 49% | 1002 hPa | 0 mm | - | - | - |
| 1778007769 | 30.56° C | 50% | 1002 hPa | 0 mm | - | - | - |
| 1778007466 | 31.11° C | 49% | 1001.9 hPa | 0 mm | - | - | - |
| 1778007163 | 31.67° C | 50% | 1002.1 hPa | 0 mm | - | - | - |
| 1778006858 | 31.11° C | 51% | 1002 hPa | 0 mm | - | - | - |
| 1778006556 | 31.11° C | 51% | 1002.1 hPa | 0 mm | - | - | - |
| 1778006253 | 31.11° C | 53% | 1002 hPa | 0 mm | - | - | - |
| 1778005950 | 30.56° C | 54% | 1002.2 hPa | 0 mm | - | - | - |
| 1778005646 | 30.56° C | 53% | 1002.2 hPa | 0 mm | - | - | - |
| 1778005344 | 30.56° C | 56% | 1002.1 hPa | 0 mm | - | - | - |
| 1778005039 | 30.56° C | 57% | 1002.3 hPa | 0 mm | - | - | - |
| 1778004738 | 30° C | 58% | 1002.2 hPa | 0 mm | - | - | - |
| 1778004434 | 30° C | 57% | 1002.4 hPa | 0 mm | - | - | - |
| 1778004131 | 29.44° C | 59% | 1002.3 hPa | 0 mm | - | - | - |
| 1778003827 | 28.89° C | 61% | 1002.4 hPa | 0 mm | - | - | - |
| 1778003523 | 28.89° C | 60% | 1002.2 hPa | 0 mm | - | - | - |
| 1778003220 | 28.89° C | 61% | 1002.4 hPa | 0 mm | - | - | - |
| 1778002916 | 28.89° C | 61% | 1002.5 hPa | 0 mm | - | - | - |
| 1778002613 | 28.89° C | 61% | 1002.5 hPa | 0 mm | - | - | - |
| 1778002309 | 28.89° C | 61% | 1002.6 hPa | 0 mm | - | - | - |
| 1778002007 | 28.33° C | 63% | 1002.6 hPa | 0 mm | - | - | - |
| 1778001704 | 28.33° C | 64% | 1002.7 hPa | 0 mm | - | - | - |
| 1778001403 | 27.78° C | 65% | 1002.6 hPa | 0 mm | - | - | - |
| 1778001101 | 27.78° C | 65% | 1002.5 hPa | 0 mm | - | - | - |
| 1778000798 | 27.78° C | 65% | 1002.6 hPa | 0 mm | - | - | - |
* Rain latest hour (hover to see other rain measurements)
** Current wind speed in m/s (hover to see current wind gust speed)